アシュブルック-ジャクソン彗星

47P/Ashbrook-Jackson (2001)

English version
Home page
Updated on December 31, 2006

---------------------------------------------------------------------

・ プロフィール

・ 軌道要素

Epoch 2001 Jan. 11.0 TT = JDT 2451920.5  
T 2001 Jan. 6.49450 TT                                  Muraoka 
q   2.3053631            (2000.0)            P               Q
n   0.13214491     Peri.  348.88442     +0.98877311     +0.14910054
a   3.8174126      Node     2.60209     -0.11501324     +0.80144040
e   0.3960927      Incl.   12.51337     -0.09539226     +0.57919109
P   7.46
From 628 observations 1948-2000, mean residual 0".98.  Nongravitational
   parameters A1 = +0.10 +/- 0.02, A2 = -0.0048 +/- 0.0002.

・ 星図

・ 光度変化

        m1 = 3.0 + 5 logΔ + 24.0 log r(t + 20)

---------------------------------------------------------------------

軌道要素は村岡健治氏の計算によるものです。
星図は StellaNavigator Ver.2.0 for Windows (アストロアーツ 編著 / アスキー出版局刊) で作成したものです。
光度グラフはComet for Windowsで作成したものです。

---------------------------------------------------------------------

Copyright(C) Seiichi Yoshida (comet@aerith.net). All rights reserved.